FW2519 Weather Reports


time (UTC)temp
C
wind
direction
speed
KPH
gust
KPH
rain 1hr
cm
rain 24hr
cm
rain mn
cm
humidity
%
barometer
mb
20260508184518 21 225 6.4 11.3 0.00 0.03 0.00 36 959.0
20260508183009 20 157 4.8 12.9 0.00 0.03 0.00 36 959.1
20260508181507 20 234 4.8 17.7 0.00 0.03 0.00 37 959.2
20260508180002 20 234 8.0 17.7 0.00 0.08 0.03 35 959.4
20260508174600 20 170 1.6 14.5 0.00 0.08 0.03 33 959.5
20260508173029 20 329 3.2 20.9 0.00 0.08 0.03 35 959.8
20260508171535 19 321 1.6 6.4 0.00 0.08 0.03 37 959.9
20260508170026 18 142 0.0 11.3 0.00 0.10 0.03 38 960.0
20260508164526 18 88 4.8 11.3 0.00 0.10 0.03 36 960.4
20260508163024 18 327 4.8 12.9 0.00 0.10 0.03 37 960.4
20260508161539 18 136 3.2 11.3 0.00 0.10 0.03 35 960.7
20260508160022 18 142 4.8 17.7 0.00 0.18 0.03 36 961.0
20260508154521 18 122 3.2 9.7 0.00 0.18 0.03 37 961.1
20260508153034 17 355 3.2 6.4 0.00 0.18 0.03 38 961.2
20260508151518 17 223 0.0 11.3 0.00 0.18 0.03 37 961.2
20260508150015 17 91 0.0 8.0 0.00 0.23 0.03 39 961.1
20260508144515 17 126 0.0 6.4 0.00 0.23 0.03 39 961.2
20260508143014 17 129 3.2 8.0 0.00 0.23 0.03 39 961.3
20260508141514 17 97 3.2 11.3 0.00 0.23 0.03 40 961.4
20260508140011 16 111 1.6 11.3 0.00 0.30 0.03 41 961.5
20260508134511 16 131 3.2 11.3 0.00 0.30 0.03 42 961.5
20260508133008 15 126 3.2 8.0 0.00 0.30 0.03 40 961.4
20260508131507 15 107 0.0 0.0 0.00 0.30 0.03 44 961.3
20260508130004 14 63 0.0 0.0 0.00 0.38 0.03 44 961.3
20260508124504 13 355 0.0 0.0 0.00 0.38 0.03 45 961.2
20260508123100 12 355 0.0 0.0 0.00 0.38 0.03 45 961.0
20260508121600 11 292 0.0 0.0 0.00 0.38 0.03 36 960.9
20260508120112 10 292 0.0 0.0 0.00 0.48 0.03 46 960.7
20260508114601 9 292 0.0 0.0 0.00 0.48 0.03 52 960.6
20260508113053 8 292 0.0 0.0 0.00 0.48 0.03 45 960.1
20260508111547 8 292 0.0 3.2 0.00 0.48 0.03 38 959.9
20260508110048 8 292 0.0 0.0 0.00 0.56 0.03 30 959.8
20260508104541 8 292 0.0 0.0 0.00 0.56 0.03 25 959.6
20260508103045 8 313 0.0 0.0 0.00 0.56 0.03 24 959.2
20260508101536 8 313 0.0 0.0 0.00 0.56 0.03 23 959.0
20260508100048 8 313 0.0 3.2 0.00 0.66 0.03 21 958.8
20260508094531 8 313 0.0 3.2 0.00 0.66 0.03 15 958.8
20260508093035 8 313 0.0 3.2 0.00 0.66 0.03 14 958.8
20260508091528 9 313 0.0 0.0 0.00 0.66 0.03 13 958.7
20260508090026 9 313 0.0 0.0 0.00 0.81 0.03 17 958.5
20260508084519 9 313 0.0 1.6 0.00 0.81 0.03 22 958.3
20260508083018 9 313 0.0 0.0 0.00 0.81 0.03 34 958.4
20260508081515 9 313 0.0 0.0 0.00 0.81 0.03 39 958.2
20260508080012 9 313 1.6 3.2 0.00 1.02 0.03 42 958.2
20260508074541 10 313 0.0 3.2 0.00 1.02 0.03 45 958.2
20260508073044 10 313 0.0 4.8 0.00 1.02 0.03 48 957.9
20260508071538 10 313 0.0 1.6 0.00 1.02 0.03 51 957.8
20260508070032 10 313 1.6 4.8 0.00 1.19 0.03 53 957.7
20260508064536 10 311 0.0 3.2 0.00 1.19 0.03 57 957.6
20260508063030 11 311 0.0 1.6 0.00 1.19 0.03 57 957.6
20260508061604 11 311 0.0 3.2 0.00 1.19 0.03 57 957.7
20260508060111 11 310 0.0 4.8 0.00 1.42 0.03 58 957.7
20260508054603 11 11 0.0 4.8 0.00 1.42 0.03 57 957.8
20260508053031 12 25 0.0 0.0 0.00 1.42 0.03 56 957.7
20260508051516 12 316 1.6 4.8 0.00 1.42 0.03 57 957.8
20260508050014 12 316 1.6 4.8 0.00 1.50 0.03 57 957.8
20260508044511 13 317 0.0 0.0 0.00 1.50 0.03 55 957.5
20260508043009 13 317 0.0 0.0 0.00 1.50 0.03 54 957.5
20260508041537 13 317 0.0 0.0 0.00 1.50 0.03 52 957.3
20260508040035 14 317 0.0 3.2 0.00 1.70 0.03 51 957.6
20260508034536 15 315 1.6 9.7 0.00 1.70 0.03 48 957.4
20260508033031 15 309 3.2 8.0 0.00 1.70 0.03 48 957.4
20260508031523 15 360 1.6 4.8 0.00 1.70 0.03 47 957.4
20260508030022 15 360 3.2 8.0 0.00 2.11 0.03 46 957.4
20260508024517 16 20 4.8 9.7 0.00 2.11 0.03 45 957.2
20260508023015 16 343 3.2 8.0 0.00 2.11 0.03 45 957.1
20260508021513 16 360 4.8 9.7 0.00 2.11 0.03 45 956.8
20260508020010 16 348 3.2 8.0 0.00 2.64 0.03 44 956.6
20260508014506 16 338 6.4 12.9 0.00 2.64 0.03 44 956.4
20260508013003 16 24 6.4 12.9 0.00 2.64 0.03 43 955.9
20260508011501 17 23 9.7 22.5 0.00 2.64 0.03 41 955.8
20260508004551 17 24 6.4 14.5 0.00 3.12 0.03 46 955.2
20260508003050 17 10 8.0 16.1 0.00 3.12 0.03 45 954.9
20260508001546 18 30 12.9 24.1 0.00 3.12 0.03 44 954.5
20260508000041 18 24 14.5 24.1 0.00 3.63 0.03 44 954.2
20260507234541 19 5 8.0 19.3 0.00 3.63 0.03 45 954.1
20260507233032 20 31 6.4 16.1 0.00 3.63 0.03 54 953.7
20260507231528 20 61 4.8 16.1 0.00 3.63 0.03 53 953.4
20260507230031 22 22 9.7 17.7 0.00 3.63 0.03 43 952.9
20260507224519 22 350 8.0 17.7 0.00 3.63 0.03 43 952.5
20260507223013 22 29 8.0 16.1 0.00 3.63 0.03 43 952.2
20260507221512 23 15 6.4 22.5 0.00 3.63 0.03 42 951.8
20260507220011 25 309 6.4 17.7 0.00 3.63 0.03 46 951.5
20260507214518 24 269 1.6 6.4 0.00 3.63 0.03 46 951.3
20260507213040 25 297 3.2 9.7 0.00 3.63 0.03 45 951.3
20260507211543 25 277 4.8 12.9 0.00 3.63 0.03 44 951.3
20260507210009 25 251 6.4 14.5 0.00 3.63 0.03 45 951.4
20260507204507 24 224 3.2 9.7 0.00 3.63 0.03 46 951.3
20260507203005 24 292 3.2 19.3 0.00 3.63 0.03 46 951.4
20260507201504 25 163 8.0 19.3 0.00 3.63 0.03 44 951.3
20260507200002 25 232 6.4 14.5 0.00 3.63 0.03 44 951.4
20260507194601 25 242 6.4 12.9 0.03 3.63 0.03 41 951.4
20260507193054 25 225 6.4 14.5 0.03 3.63 0.03 26 951.5
20260507191554 25 272 8.0 14.5 0.03 3.63 0.03 20 952.1
20260507190051 24 236 6.4 16.1 0.03 3.66 0.03 23 952.1